Pinedale, WY

7:11 AM MDT on May 27, 2017 (GMT -0600)
Wenz

Weather History for KPNA - August, 2013

Change the Weather History Date:

Wednesday, August 21, 2013

  Actual Average (KBPI) Record (KBPI)
Temperature  
Mean Temperature 64 °F -  
Max Temperature 77 °F 76 °F 87 °F (2010)
Min Temperature 50 °F 39 °F 27 °F (1980)
Degree Days  
Heating Degree Days 2    
Growing Degree Days 14 (Base 50)    
Moisture  
Dew Point 45 °F    
Average Humidity 58    
Maximum Humidity 88    
Minimum Humidity 27    
Precipitation  
Precipitation 0.00 in - - ()
Sea Level Pressure  
Sea Level Pressure 30.31 in    
Wind  
Wind Speed 5 mph (WNW)    
Max Wind Speed 15 mph    
Max Gust Speed 20 mph    
Visibility 10 miles    
Events Rain , Thunderstorm    
Averages and records for this station are not official NWS values.
T = Trace of Precipitation, MM = Missing Value Source: NWS Daily Summary

Daily Weather History Graph

Daily Weather History Graph

Search for Another Location

Airport or City:

Trip Planner

Search our weather history database for the weather conditions in past years. The results will help you decide how hot, cold, wet, or windy it might be!

Date:

Astronomy

Aug. 21, 2013 Rise Set
Actual Time 6:32 AM MDT 8:11 PM MDT
Civil Twilight 6:02 AM MDT 8:41 PM MDT
Nautical Twilight 5:26 AM MDT 9:17 PM MDT
Astronomical Twilight 4:47 AM MDT 9:56 PM MDT
Moon 8:18 PM MDT (8/21) 7:18 AM MDT (8/21)
Length of Visible Light 14h 38m
Length of Day
13h 39m
Full, 99% of the Moon is Illuminated
Aug 21
Full
Aug 28
Last Quarter
Sep 5
New
Sep 12
First Quarter
Sep 19
Full

Hourly Weather History & Observations

Time (MDT) Temp. Dew Point Humidity Pressure Visibility Wind Dir Wind Speed Gust Speed Precip Events Conditions
12:15 AM 55.4 °F 46.4 °F 72% 30.29 in 10.0 mi NNW 4.6 mph - N/A   Scattered Clouds
12:35 AM 55.4 °F 46.4 °F 72% 30.30 in 10.0 mi NW 3.5 mph - N/A   Clear
12:55 AM 55.4 °F 48.2 °F 77% 30.30 in 10.0 mi West 5.8 mph - N/A   Clear
1:15 AM 53.6 °F 48.2 °F 82% 30.30 in 10.0 mi WNW 5.8 mph - N/A   Clear
1:35 AM 51.8 °F 48.2 °F 88% 30.29 in 10.0 mi West 6.9 mph - N/A   Scattered Clouds
1:55 AM 51.8 °F 46.4 °F 82% 30.30 in 10.0 mi West 8.1 mph - N/A   Mostly Cloudy
2:15 AM 53.6 °F 46.4 °F 77% 30.30 in 10.0 mi West 5.8 mph - N/A   Overcast
2:35 AM 53.6 °F 46.4 °F 77% 30.29 in 10.0 mi NW 4.6 mph - N/A   Overcast
2:55 AM 51.8 °F 44.6 °F 76% 30.29 in 10.0 mi West 3.5 mph - N/A   Overcast
3:15 AM 51.8 °F 46.4 °F 82% 30.30 in 10.0 mi WNW 6.9 mph - N/A   Overcast
3:35 AM 53.6 °F 44.6 °F 72% 30.30 in 10.0 mi NNW 4.6 mph - N/A   Overcast
3:55 AM 51.8 °F 44.6 °F 76% 30.29 in 10.0 mi NNW 4.6 mph - N/A   Mostly Cloudy
4:15 AM 51.8 °F 44.6 °F 76% 30.29 in 10.0 mi Calm Calm - N/A   Mostly Cloudy
4:35 AM 51.8 °F 46.4 °F 82% 30.30 in 10.0 mi Calm Calm - N/A   Scattered Clouds
4:55 AM 51.8 °F 46.4 °F 82% 30.30 in 10.0 mi WNW 3.5 mph - N/A   Scattered Clouds
5:15 AM 53.6 °F 44.6 °F 72% 30.30 in 10.0 mi NW 3.5 mph - N/A   Clear
5:35 AM 51.8 °F 44.6 °F 76% 30.31 in 10.0 mi Calm Calm - N/A   Clear
5:55 AM 51.8 °F 44.6 °F 76% 30.31 in 10.0 mi NW 6.9 mph - N/A   Clear
6:15 AM 50.0 °F 46.4 °F 87% 30.31 in 10.0 mi Calm Calm - N/A   Clear
6:35 AM 50.0 °F 44.6 °F 82% 30.32 in 10.0 mi Calm Calm - N/A   Mostly Cloudy
6:55 AM 50.0 °F 44.6 °F 82% 30.32 in 10.0 mi Calm Calm - N/A   Mostly Cloudy
7:15 AM 50.0 °F 46.4 °F 87% 30.32 in 10.0 mi West 6.9 mph - N/A   Mostly Cloudy
7:35 AM 51.8 °F 44.6 °F 76% 30.32 in 10.0 mi West 5.8 mph - N/A   Scattered Clouds
7:55 AM 51.8 °F 44.6 °F 76% 30.32 in 10.0 mi West 4.6 mph - N/A   Scattered Clouds
8:15 AM 53.6 °F 46.4 °F 77% 30.32 in 10.0 mi West 5.8 mph - N/A   Overcast
8:35 AM 55.4 °F 46.4 °F 72% 30.32 in 10.0 mi WNW 5.8 mph - N/A   Overcast
8:55 AM 57.2 °F 46.4 °F 67% 30.32 in 10.0 mi NW 4.6 mph - N/A   Overcast
9:15 AM 59.0 °F 46.4 °F 63% 30.33 in 10.0 mi NW 3.5 mph - N/A   Mostly Cloudy
9:35 AM 59.0 °F 48.2 °F 67% 30.33 in 10.0 mi NW 5.8 mph - N/A   Mostly Cloudy
9:55 AM 59.0 °F 48.2 °F 67% 30.33 in 10.0 mi WNW 4.6 mph - N/A   Scattered Clouds
10:15 AM 60.8 °F 48.2 °F 63% 30.33 in 10.0 mi NW 4.6 mph - N/A   Mostly Cloudy
10:35 AM 62.6 °F 50.0 °F 63% 30.34 in 10.0 mi West 5.8 mph - N/A   Scattered Clouds
10:55 AM 64.4 °F 46.4 °F 52% 30.34 in 10.0 mi WNW 9.2 mph - N/A   Mostly Cloudy
11:15 AM 64.4 °F 48.2 °F 56% 30.34 in 10.0 mi NW 5.8 mph - N/A   Overcast
11:35 AM 66.2 °F 46.4 °F 49% 30.34 in 10.0 mi NW 5.8 mph - N/A   Mostly Cloudy
11:55 AM 68.0 °F 46.4 °F 46% 30.34 in 10.0 mi NNW 5.8 mph - N/A   Scattered Clouds
12:15 PM 69.8 °F 46.4 °F 43% 30.34 in 10.0 mi NNW 9.2 mph - N/A   Mostly Cloudy
12:35 PM 71.6 °F 44.6 °F 38% 30.33 in 10.0 mi NW 10.4 mph 16.1 mph N/A   Mostly Cloudy
12:55 PM 71.6 °F 42.8 °F 35% 30.32 in 10.0 mi NNW 12.7 mph - N/A   Mostly Cloudy
1:15 PM 71.6 °F 42.8 °F 35% 30.32 in 10.0 mi NNW 11.5 mph - N/A   Mostly Cloudy
1:35 PM 73.4 °F 44.6 °F 36% 30.31 in 10.0 mi WNW 11.5 mph 17.3 mph N/A   Clear
1:55 PM 73.4 °F 42.8 °F 33% 30.31 in 10.0 mi WNW 11.5 mph - N/A   Scattered Clouds
2:15 PM 75.2 °F 42.8 °F 31% 30.30 in 10.0 mi NNW 10.4 mph 16.1 mph N/A   Scattered Clouds
2:35 PM 77.0 °F 41.0 °F 28% 30.30 in 10.0 mi WNW 8.1 mph - N/A   Clear
2:55 PM 73.4 °F 41.0 °F 31% 30.29 in 10.0 mi West 6.9 mph - N/A   Clear
3:15 PM 73.4 °F 41.0 °F 31% 30.29 in 10.0 mi Calm Calm - N/A   Scattered Clouds
3:35 PM 75.2 °F 39.2 °F 27% 30.29 in 10.0 mi WSW 8.1 mph - N/A   Overcast
3:55 PM 71.6 °F 41.0 °F 33% 30.29 in 10.0 mi WSW 15.0 mph 19.6 mph N/A   Scattered Clouds
4:15 PM 73.4 °F 41.0 °F 31% 30.28 in 10.0 mi SW 15.0 mph 19.6 mph N/A   Clear
4:35 PM 73.4 °F 41.0 °F 31% 30.27 in 10.0 mi SW 10.4 mph - N/A   Clear
4:55 PM 73.4 °F 41.0 °F 31% 30.27 in 10.0 mi SW 3.5 mph - N/A   Scattered Clouds
5:15 PM 73.4 °F 39.2 °F 29% 30.27 in 10.0 mi Calm Calm - N/A   Scattered Clouds
5:35 PM 73.4 °F 37.4 °F 27% 30.27 in 10.0 mi Calm Calm - N/A   Scattered Clouds
5:55 PM 73.4 °F 37.4 °F 27% 30.26 in 10.0 mi West 4.6 mph - N/A   Scattered Clouds
6:15 PM 73.4 °F 37.4 °F 27% 30.26 in 10.0 mi WNW 6.9 mph - N/A   Clear
6:35 PM 73.4 °F 37.4 °F 27% 30.26 in 10.0 mi West 3.5 mph - N/A   Clear
6:55 PM 71.6 °F 37.4 °F 29% 30.26 in 10.0 mi Calm Calm - N/A   Scattered Clouds
7:35 PM 69.8 °F 41.0 °F 35% 30.27 in 10.0 mi WNW 9.2 mph - N/A Rain Light Rain
7:55 PM 66.2 °F 48.2 °F 52% 30.29 in 10.0 mi West 8.1 mph - N/A Rain Light Rain
8:15 PM 64.4 °F 44.6 °F 49% 30.29 in 10.0 mi WNW 10.4 mph - N/A   Clear
8:35 PM 62.6 °F 44.6 °F 52% 30.29 in 10.0 mi WNW 9.2 mph - N/A   Scattered Clouds
8:55 PM 60.8 °F 44.6 °F 55% 30.31 in 10.0 mi East 6.9 mph - N/A   Mostly Cloudy
9:15 PM 60.8 °F 44.6 °F 55% 30.31 in 10.0 mi SW 4.6 mph - N/A   Mostly Cloudy
9:35 PM 59.0 °F 44.6 °F 59% 30.32 in 10.0 mi West 6.9 mph - N/A   Mostly Cloudy
9:55 PM 60.8 °F 44.6 °F 55% 30.32 in 10.0 mi WNW 3.5 mph - N/A   Scattered Clouds
10:15 PM 60.8 °F 44.6 °F 55% 30.32 in 10.0 mi WNW 4.6 mph - N/A   Scattered Clouds
10:35 PM 60.8 °F 46.4 °F 59% 30.32 in 10.0 mi Calm Calm - N/A   Mostly Cloudy
10:55 PM 59.0 °F 48.2 °F 67% 30.33 in 10.0 mi NW 4.6 mph - N/A   Mostly Cloudy
11:15 PM 59.0 °F 48.2 °F 67% 30.33 in 10.0 mi NW 4.6 mph - N/A   Scattered Clouds
11:35 PM 59.0 °F 50.0 °F 72% 30.33 in 10.0 mi NW 3.5 mph - N/A Thunderstorm Mostly Cloudy
11:55 PM 59.0 °F 50.0 °F 72% 30.34 in 10.0 mi NW 6.9 mph - N/A Thunderstorm Thunderstorm